This demonstration page uses our WeatherBlox Daily Observations layout. Learn more.

Left ArrowRight Arrow

39.12711, -84.51439

Hourly Observations for March 25, 2021

Temp ( °F °C ) Dew Point ( °F °C ) Humidity (%) Winds ( mph kmh ) Pressure ( in mb ) Visibility ( mi km ) Precip ( " mm )
12:53 am 00:53 Clear 50 10 45 7.2 83 83 Calm 29.93 1013 10 16.0934 0 0
1:53 am 01:53 Clear 49 9.4 45 7.2 86 86 Calm 29.93 1014 10 16.0934 0 0
2:53 am 02:53 Clear 47 8.3 44 6.7 90 90 Calm 29.93 1014 10 16.0934 0 0
3:53 am 03:53 Clear 45 7.2 43 6.1 93 93 N 3 6 29.92 1013 10 16.0934 0 0
4:53 am 04:53 Clear 45 7.2 43 6.1 93 93 Calm 29.91 1013 10 16.0934 0 0
5:53 am 05:53 Clear 48 8.9 45 7.2 89 89 W 3 6 29.93 1013 10 16.0934 0 0
6:53 am 06:53 Clear 46 7.8 44 6.7 93 93 Calm 29.96 1015 10 16.0934 0 0
7:53 am 07:53 Sunny 45 7.2 44 6.7 97 97 Calm 29.95 1014 10 16.0934 0 0
8:53 am 08:53 Sunny 49 9.4 46 7.8 90 90 Calm 29.94 1014 10 16.0934 0 0
9:53 am 09:53 Sunny 51 10.6 47 8.3 86 86 Calm 29.96 1015 10 16.0934 0 0
10:53 am 10:53 Sunny 54 12.2 48 8.9 80 80 Calm 29.94 1014 10 16.0934 0 0
11:53 am 11:53 Mostly Cloudy 59 15 49 9.4 69 69 Calm 29.92 1013 10 16.0934 0 0
12:53 pm 12:53 Cloudy with Light Rain 57 13.9 51 10.6 81 81 VRB 3 6 29.9 1013 5 8.0467 0.09 2.286
1:10 pm 13:10 Cloudy with Nearby Thunderstorms 57 13.9 52 11.1 83 83 SW 7 11 29.92 1013 5 8.0467 0.01 0.254
1:27 pm 13:27 Cloudy with Light Rain 59 15 54 12.2 83 83 SSW 5 7 29.91 1013 7 11.26538 0.02 0.508
1:51 pm 13:51 Cloudy with Light Rain 59 15 55 13 88 88 VRB 3 6 29.89 1012 6 9.65604 0.04 1.016
1:53 pm 13:53 Cloudy with Light Rain 59 15 55 12.8 87 87 Calm 29.88 1012 7 11.26538 0.04 1.016
2:53 pm 14:53 Mostly Cloudy 62 16.7 58 14.4 86 86 E 5 7 29.81 1010 10 16.0934 0.01 0.254
3:53 pm 15:53 Mostly Cloudy 64 17.8 57 13.9 78 78 ESE 8 13 29.8 1009 10 16.0934 0 0
4:53 pm 16:53 Cloudy 66 18.9 56 13.3 70 70 SE 9 15 29.73 1007 10 16.0934 0 0
5:53 pm 17:53 Cloudy 65 18.3 55 12.8 70 70 SSE 10 17 29.72 1006 10 16.0934 0 0
6:53 pm 18:53 Cloudy 65 18.3 55 12.8 70 70 SE 6 9 29.69 1006 10 16.0934 0 0
7:53 pm 19:53 Cloudy 65 18.3 56 13.3 73 73 SE 6 9 29.67 1005 10 16.0934 0 0
8:53 pm 20:53 Cloudy with Light Rain 64 17.8 57 13.9 78 78 SSE 7 11 29.63 1003 10 16.0934 0.01 0.254
9:53 pm 21:53 Mostly Cloudy 64 17.8 58 14.4 81 81 S 13 20 29.6 1002 10 16.0934 0.001 0.001
10:53 pm 22:53 Cloudy 65 18.3 59 15 81 81 S 14 22 29.55 1001 10 16.0934 0 0
11:22 pm 23:22 Mostly Cloudy 65 18.3 59 15 81 81 S 14 22 29.55 1001 10 16.0934 0 0
11:53 pm 23:53 Cloudy 65 18.3 59 15 81 81 S 16 26 29.52 1000 10 16.0934 0 0

Powered by AerisWeather